owner,sensor,date,latitude,longitude,air_pressure(mBar),qcFlag 
COMPS,ioos:station:USF.COMPS:C10:1,2014-08-01T01:05:00Z,27.1690,-82.9260,1013.16,1111122 
COMPS,ioos:station:USF.COMPS:C10:1,2014-08-01T01:35:00Z,27.1690,-82.9260,1013.22,1111122 
COMPS,ioos:station:USF.COMPS:C10:1,2014-08-01T02:05:00Z,27.1690,-82.9260,1013.23,1111122 
COMPS,ioos:station:USF.COMPS:C10:1,2014-08-01T02:35:00Z,27.1690,-82.9260,1013.64,1111122 
COMPS,ioos:station:USF.COMPS:C10:1,2014-08-01T03:05:00Z,27.1690,-82.9260,1013.68,1111122 
COMPS,ioos:station:USF.COMPS:C10:1,2014-08-01T03:35:00Z,27.1690,-82.9260,1013.65,1111122 
COMPS,ioos:station:USF.COMPS:C10:1,2014-08-01T04:05:00Z,27.1690,-82.9260,1013.67,1111122 
COMPS,ioos:station:USF.COMPS:C10:1,2014-08-01T04:35:00Z,27.1690,-82.9260,1013.67,1111122 
COMPS,ioos:station:USF.COMPS:C10:1,2014-08-01T05:05:00Z,27.1690,-82.9260,1013.61,1111122 
COMPS,ioos:station:USF.COMPS:C10:1,2014-08-01T05:35:00Z,27.1690,-82.9260,1013.23,1111122 
COMPS,ioos:station:USF.COMPS:C10:1,2014-08-01T06:05:00Z,27.1690,-82.9260,1012.91,1111122 
COMPS,ioos:station:USF.COMPS:C10:1,2014-08-01T06:35:00Z,27.1690,-82.9260,1012.67,1111122 
COMPS,ioos:station:USF.COMPS:C10:1,2014-08-01T07:05:00Z,27.1690,-82.9260,1012.29,1111122 
COMPS,ioos:station:USF.COMPS:C10:1,2014-08-01T07:35:00Z,27.1690,-82.9260,1012.06,1111122 
COMPS,ioos:station:USF.COMPS:C10:1,2014-08-01T08:05:00Z,27.1690,-82.9260,1012.08,1111122 
COMPS,ioos:station:USF.COMPS:C10:1,2014-08-01T08:35:00Z,27.1690,-82.9260,1012.0,1111122 
COMPS,ioos:station:USF.COMPS:C10:1,2014-08-01T09:05:00Z,27.1690,-82.9260,1011.99,1111122 
COMPS,ioos:station:USF.COMPS:C10:1,2014-08-01T09:35:00Z,27.1690,-82.9260,1012.25,1111122 
COMPS,ioos:station:USF.COMPS:C10:1,2014-08-01T10:05:00Z,27.1690,-82.9260,1012.34,1111122 
COMPS,ioos:station:USF.COMPS:C10:1,2014-08-01T10:35:00Z,27.1690,-82.9260,1012.74,1111122 
COMPS,ioos:station:USF.COMPS:C10:1,2014-08-01T11:05:00Z,27.1690,-82.9260,1012.96,1111122 
COMPS,ioos:station:USF.COMPS:C10:1,2014-08-01T11:35:00Z,27.1690,-82.9260,1013.09,1111122 
COMPS,ioos:station:USF.COMPS:C10:1,2014-08-01T12:05:00Z,27.1690,-82.9260,1013.23,1111122 
COMPS,ioos:station:USF.COMPS:C10:1,2014-08-01T12:35:00Z,27.1690,-82.9260,1013.36,1111122 
COMPS,ioos:station:USF.COMPS:C10:1,2014-08-01T13:05:00Z,27.1690,-82.9260,1013.72,1111122 
COMPS,ioos:station:USF.COMPS:C10:1,2014-08-01T13:35:00Z,27.1690,-82.9260,1013.73,1111122 
COMPS,ioos:station:USF.COMPS:C10:1,2014-08-01T14:05:00Z,27.1690,-82.9260,1014.01,1111122 
COMPS,ioos:station:USF.COMPS:C10:1,2014-08-01T14:35:00Z,27.1690,-82.9260,1014.16,1111122 
COMPS,ioos:station:USF.COMPS:C10:1,2014-08-01T15:05:00Z,27.1690,-82.9260,1014.17,1111122 
COMPS,ioos:station:USF.COMPS:C10:1,2014-08-01T15:35:00Z,27.1690,-82.9260,1014.13,1111122 
COMPS,ioos:station:USF.COMPS:C10:1,2014-08-01T16:05:00Z,27.1690,-82.9260,1014.17,1111122 
COMPS,ioos:station:USF.COMPS:C10:1,2014-08-01T16:35:00Z,27.1690,-82.9260,1014.17,1111122 
COMPS,ioos:station:USF.COMPS:C10:1,2014-08-01T17:05:00Z,27.1690,-82.9260,1014.13,1111122 
COMPS,ioos:station:USF.COMPS:C10:1,2014-08-01T17:35:00Z,27.1690,-82.9260,1013.92,1111122 
COMPS,ioos:station:USF.COMPS:C10:1,2014-08-01T18:05:00Z,27.1690,-82.9260,1013.7,1111122 
COMPS,ioos:station:USF.COMPS:C10:1,2014-08-01T18:35:00Z,27.1690,-82.9260,1013.64,1111122 
COMPS,ioos:station:USF.COMPS:C10:1,2014-08-01T19:05:00Z,27.1690,-82.9260,1013.3,1111122 
COMPS,ioos:station:USF.COMPS:C10:1,2014-08-01T19:35:00Z,27.1690,-82.9260,1013.22,1111122 
COMPS,ioos:station:USF.COMPS:C10:1,2014-08-01T20:05:00Z,27.1690,-82.9260,1012.92,1111122 
COMPS,ioos:station:USF.COMPS:C10:1,2014-08-01T20:35:00Z,27.1690,-82.9260,1012.6,1111122 
COMPS,ioos:station:USF.COMPS:C10:1,2014-08-01T21:05:00Z,27.1690,-82.9260,1012.37,1111122 
COMPS,ioos:station:USF.COMPS:C10:1,2014-08-01T21:35:00Z,27.1690,-82.9260,1011.88,1111122 
COMPS,ioos:station:USF.COMPS:C10:1,2014-08-01T22:05:00Z,27.1690,-82.9260,1012.05,1111122 
COMPS,ioos:station:USF.COMPS:C10:1,2014-08-01T22:35:00Z,27.1690,-82.9260,1011.89,1111122 
COMPS,ioos:station:USF.COMPS:C10:1,2014-08-01T23:05:00Z,27.1690,-82.9260,1011.86,1111122 
COMPS,ioos:station:USF.COMPS:C10:1,2014-08-01T23:35:00Z,27.1690,-82.9260,1012.37,1111122 
COMPS,ioos:station:USF.COMPS:C10:1,2014-08-02T00:05:00Z,27.1690,-82.9260,1012.62,1111122 
COMPS,ioos:station:USF.COMPS:C10:1,2014-08-02T00:35:00Z,27.1690,-82.9260,1013.05,1111122 
COMPS,ioos:station:USF.COMPS:C10:1,2014-08-02T02:05:00Z,27.1690,-82.9260,1013.24,1111122 
COMPS,ioos:station:USF.COMPS:C10:1,2014-08-02T02:35:00Z,27.1690,-82.9260,1013.45,1111122 
COMPS,ioos:station:USF.COMPS:C10:1,2014-08-02T03:05:00Z,27.1690,-82.9260,1013.37,1111122 
COMPS,ioos:station:USF.COMPS:C10:1,2014-08-02T03:35:00Z,27.1690,-82.9260,1013.25,1111122 
COMPS,ioos:station:USF.COMPS:C10:1,2014-08-02T04:05:00Z,27.1690,-82.9260,1013.34,1111122 
COMPS,ioos:station:USF.COMPS:C10:1,2014-08-02T04:35:00Z,27.1690,-82.9260,1013.07,1111122 
COMPS,ioos:station:USF.COMPS:C10:1,2014-08-02T05:05:00Z,27.1690,-82.9260,1012.89,1111122 
COMPS,ioos:station:USF.COMPS:C10:1,2014-08-02T05:35:00Z,27.1690,-82.9260,1012.61,1111122 
COMPS,ioos:station:USF.COMPS:C10:1,2014-08-02T06:05:00Z,27.1690,-82.9260,1012.22,1111122 
COMPS,ioos:station:USF.COMPS:C10:1,2014-08-02T06:35:00Z,27.1690,-82.9260,1011.91,1111122 
COMPS,ioos:station:USF.COMPS:C10:1,2014-08-02T08:05:00Z,27.1690,-82.9260,1011.41,1111122 
COMPS,ioos:station:USF.COMPS:C10:1,2014-08-02T08:35:00Z,27.1690,-82.9260,1011.37,1111122 
COMPS,ioos:station:USF.COMPS:C10:1,2014-08-02T09:05:00Z,27.1690,-82.9260,1011.43,1111122 
COMPS,ioos:station:USF.COMPS:C10:1,2014-08-02T09:35:00Z,27.1690,-82.9260,1011.48,1111122 
COMPS,ioos:station:USF.COMPS:C10:1,2014-08-02T10:05:00Z,27.1690,-82.9260,1011.61,1111122 
COMPS,ioos:station:USF.COMPS:C10:1,2014-08-02T10:35:00Z,27.1690,-82.9260,1011.86,1111122 
COMPS,ioos:station:USF.COMPS:C10:1,2014-08-02T11:05:00Z,27.1690,-82.9260,1011.88,1111122 
COMPS,ioos:station:USF.COMPS:C10:1,2014-08-02T11:35:00Z,27.1690,-82.9260,1012.14,1111122 
COMPS,ioos:station:USF.COMPS:C10:1,2014-08-02T12:05:00Z,27.1690,-82.9260,1012.49,1111122 
COMPS,ioos:station:USF.COMPS:C10:1,2014-08-02T12:35:00Z,27.1690,-82.9260,1012.94,1111122 
COMPS,ioos:station:USF.COMPS:C10:1,2014-08-02T13:05:00Z,27.1690,-82.9260,1013.21,1111122 
COMPS,ioos:station:USF.COMPS:C10:1,2014-08-02T13:35:00Z,27.1690,-82.9260,1013.32,1111122 
COMPS,ioos:station:USF.COMPS:C10:1,2014-08-02T14:05:00Z,27.1690,-82.9260,1013.18,1111122 
COMPS,ioos:station:USF.COMPS:C10:1,2014-08-02T14:35:00Z,27.1690,-82.9260,1013.23,1111122 
COMPS,ioos:station:USF.COMPS:C10:1,2014-08-02T15:05:00Z,27.1690,-82.9260,1013.64,1111122 
COMPS,ioos:station:USF.COMPS:C10:1,2014-08-02T15:35:00Z,27.1690,-82.9260,1013.64,1111122 
COMPS,ioos:station:USF.COMPS:C10:1,2014-08-02T16:05:00Z,27.1690,-82.9260,1013.64,1111122 
COMPS,ioos:station:USF.COMPS:C10:1,2014-08-02T16:35:00Z,27.1690,-82.9260,1013.6,1111122 
COMPS,ioos:station:USF.COMPS:C10:1,2014-08-02T17:05:00Z,27.1690,-82.9260,1013.64,1111122 
COMPS,ioos:station:USF.COMPS:C10:1,2014-08-02T17:35:00Z,27.1690,-82.9260,1013.31,1111122 
COMPS,ioos:station:USF.COMPS:C10:1,2014-08-02T18:05:00Z,27.1690,-82.9260,1013.09,1111122 
COMPS,ioos:station:USF.COMPS:C10:1,2014-08-02T18:35:00Z,27.1690,-82.9260,1012.68,1111122 
COMPS,ioos:station:USF.COMPS:C10:1,2014-08-02T20:05:00Z,27.1690,-82.9260,1011.72,1111122 
COMPS,ioos:station:USF.COMPS:C10:1,2014-08-02T20:35:00Z,27.1690,-82.9260,1011.29,1111122 
COMPS,ioos:station:USF.COMPS:C10:1,2014-08-02T21:05:00Z,27.1690,-82.9260,1011.22,1111122 
COMPS,ioos:station:USF.COMPS:C10:1,2014-08-02T21:35:00Z,27.1690,-82.9260,1010.97,1111122 
COMPS,ioos:station:USF.COMPS:C10:1,2014-08-02T22:05:00Z,27.1690,-82.9260,1010.98,1111122 
COMPS,ioos:station:USF.COMPS:C10:1,2014-08-02T22:35:00Z,27.1690,-82.9260,1010.99,1111122 
COMPS,ioos:station:USF.COMPS:C10:1,2014-08-02T23:05:00Z,27.1690,-82.9260,1011.01,1111122 
COMPS,ioos:station:USF.COMPS:C10:1,2014-08-02T23:35:00Z,27.1690,-82.9260,1010.96,1111122 
COMPS,ioos:station:USF.COMPS:C10:1,2014-08-03T00:05:00Z,27.1690,-82.9260,1011.02,1111122 
COMPS,ioos:station:USF.COMPS:C10:1,2014-08-03T00:35:00Z,27.1690,-82.9260,1011.47,1111122 
COMPS,ioos:station:USF.COMPS:C10:1,2014-08-03T01:05:00Z,27.1690,-82.9260,1011.6,1111122 
COMPS,ioos:station:USF.COMPS:C10:1,2014-08-03T01:35:00Z,27.1690,-82.9260,1011.57,1111122 
COMPS,ioos:station:USF.COMPS:C10:1,2014-08-03T02:05:00Z,27.1690,-82.9260,1012.1,1111122 
COMPS,ioos:station:USF.COMPS:C10:1,2014-08-03T02:35:00Z,27.1690,-82.9260,1012.56,1111122 
COMPS,ioos:station:USF.COMPS:C10:1,2014-08-03T03:05:00Z,27.1690,-82.9260,1013.04,1111122 
COMPS,ioos:station:USF.COMPS:C10:1,2014-08-03T03:35:00Z,27.1690,-82.9260,1013.33,1111122 
COMPS,ioos:station:USF.COMPS:C10:1,2014-08-03T04:05:00Z,27.1690,-82.9260,1013.32,1111122 
COMPS,ioos:station:USF.COMPS:C10:1,2014-08-03T04:35:00Z,27.1690,-82.9260,1012.55,1111122 
COMPS,ioos:station:USF.COMPS:C10:1,2014-08-03T05:05:00Z,27.1690,-82.9260,1012.14,1111122 
COMPS,ioos:station:USF.COMPS:C10:1,2014-08-03T05:35:00Z,27.1690,-82.9260,1011.55,1111122 
COMPS,ioos:station:USF.COMPS:C10:1,2014-08-03T06:05:00Z,27.1690,-82.9260,1011.4,1111122 
COMPS,ioos:station:USF.COMPS:C10:1,2014-08-03T06:35:00Z,27.1690,-82.9260,1010.9,1111122 
COMPS,ioos:station:USF.COMPS:C10:1,2014-08-03T07:05:00Z,27.1690,-82.9260,1010.46,1111122 
COMPS,ioos:station:USF.COMPS:C10:1,2014-08-03T07:35:00Z,27.1690,-82.9260,1010.51,1111122 
COMPS,ioos:station:USF.COMPS:C10:1,2014-08-03T08:05:00Z,27.1690,-82.9260,1010.52,1111122 
COMPS,ioos:station:USF.COMPS:C10:1,2014-08-03T08:35:00Z,27.1690,-82.9260,1010.42,1111122 
COMPS,ioos:station:USF.COMPS:C10:1,2014-08-03T09:05:00Z,27.1690,-82.9260,1010.72,1111122 
COMPS,ioos:station:USF.COMPS:C10:1,2014-08-03T09:35:00Z,27.1690,-82.9260,1010.94,1111122 
COMPS,ioos:station:USF.COMPS:C10:1,2014-08-03T10:05:00Z,27.1690,-82.9260,1011.16,1111122 
COMPS,ioos:station:USF.COMPS:C10:1,2014-08-03T10:35:00Z,27.1690,-82.9260,1011.46,1111122 
COMPS,ioos:station:USF.COMPS:C10:1,2014-08-03T11:05:00Z,27.1690,-82.9260,1011.55,1111122 
COMPS,ioos:station:USF.COMPS:C10:1,2014-08-03T11:35:00Z,27.1690,-82.9260,1011.84,1111122 
COMPS,ioos:station:USF.COMPS:C10:1,2014-08-03T12:05:00Z,27.1690,-82.9260,1012.16,1111122 
COMPS,ioos:station:USF.COMPS:C10:1,2014-08-03T12:35:00Z,27.1690,-82.9260,1012.35,1111122 
COMPS,ioos:station:USF.COMPS:C10:1,2014-08-03T13:05:00Z,27.1690,-82.9260,1012.34,1111122 
COMPS,ioos:station:USF.COMPS:C10:1,2014-08-03T13:35:00Z,27.1690,-82.9260,1012.3,1111122 
COMPS,ioos:station:USF.COMPS:C10:1,2014-08-03T14:05:00Z,27.1690,-82.9260,1012.19,1111122 
COMPS,ioos:station:USF.COMPS:C10:1,2014-08-03T14:35:00Z,27.1690,-82.9260,1012.17,1111122 
COMPS,ioos:station:USF.COMPS:C10:1,2014-08-03T15:05:00Z,27.1690,-82.9260,1012.33,1111122 
COMPS,ioos:station:USF.COMPS:C10:1,2014-08-03T15:35:00Z,27.1690,-82.9260,1012.38,1111122 
COMPS,ioos:station:USF.COMPS:C10:1,2014-08-03T17:05:00Z,27.1690,-82.9260,1012.22,1111122 
COMPS,ioos:station:USF.COMPS:C10:1,2014-08-03T17:35:00Z,27.1690,-82.9260,1012.42,1111122 
COMPS,ioos:station:USF.COMPS:C10:1,2014-08-03T18:05:00Z,27.1690,-82.9260,1012.67,1111122 
COMPS,ioos:station:USF.COMPS:C10:1,2014-08-03T18:35:00Z,27.1690,-82.9260,1011.97,1111122 
COMPS,ioos:station:USF.COMPS:C10:1,2014-08-03T19:05:00Z,27.1690,-82.9260,1011.67,1111122 
COMPS,ioos:station:USF.COMPS:C10:1,2014-08-03T19:35:00Z,27.1690,-82.9260,1011.38,1111122 
COMPS,ioos:station:USF.COMPS:C10:1,2014-08-03T20:05:00Z,27.1690,-82.9260,1010.5,1111122 
COMPS,ioos:station:USF.COMPS:C10:1,2014-08-03T20:35:00Z,27.1690,-82.9260,1010.62,1111122 
COMPS,ioos:station:USF.COMPS:C10:1,2014-08-03T21:05:00Z,27.1690,-82.9260,1010.51,1111122 
COMPS,ioos:station:USF.COMPS:C10:1,2014-08-03T21:35:00Z,27.1690,-82.9260,1010.59,1111122 
COMPS,ioos:station:USF.COMPS:C10:1,2014-08-03T22:05:00Z,27.1690,-82.9260,1010.45,1111122 
COMPS,ioos:station:USF.COMPS:C10:1,2014-08-03T22:35:00Z,27.1690,-82.9260,1010.13,1111122 
COMPS,ioos:station:USF.COMPS:C10:1,2014-08-04T00:05:00Z,27.1690,-82.9260,1009.83,1111122 
COMPS,ioos:station:USF.COMPS:C10:1,2014-08-04T00:35:00Z,27.1690,-82.9260,1010.13,1111122 
COMPS,ioos:station:USF.COMPS:C10:1,2014-08-04T01:05:00Z,27.1690,-82.9260,1010.47,1111122 
COMPS,ioos:station:USF.COMPS:C10:1,2014-08-04T01:35:00Z,27.1690,-82.9260,1010.77,1111122 
COMPS,ioos:station:USF.COMPS:C10:1,2014-08-04T02:05:00Z,27.1690,-82.9260,1011.33,1111122 
COMPS,ioos:station:USF.COMPS:C10:1,2014-08-04T02:35:00Z,27.1690,-82.9260,1011.48,1111122 
COMPS,ioos:station:USF.COMPS:C10:1,2014-08-04T03:05:00Z,27.1690,-82.9260,1011.78,1111122 
COMPS,ioos:station:USF.COMPS:C10:1,2014-08-04T03:35:00Z,27.1690,-82.9260,1011.55,1111122 
COMPS,ioos:station:USF.COMPS:C10:1,2014-08-04T04:05:00Z,27.1690,-82.9260,1012.18,1111122 
COMPS,ioos:station:USF.COMPS:C10:1,2014-08-04T04:35:00Z,27.1690,-82.9260,1012.28,1111122 
COMPS,ioos:station:USF.COMPS:C10:1,2014-08-04T05:05:00Z,27.1690,-82.9260,1011.63,1111122 
COMPS,ioos:station:USF.COMPS:C10:1,2014-08-04T05:35:00Z,27.1690,-82.9260,1010.89,1111122 
COMPS,ioos:station:USF.COMPS:C10:1,2014-08-04T06:05:00Z,27.1690,-82.9260,1010.98,1111122 
COMPS,ioos:station:USF.COMPS:C10:1,2014-08-04T06:35:00Z,27.1690,-82.9260,1010.76,1111122 
COMPS,ioos:station:USF.COMPS:C10:1,2014-08-04T07:05:00Z,27.1690,-82.9260,1010.45,1111122 
COMPS,ioos:station:USF.COMPS:C10:1,2014-08-04T07:35:00Z,27.1690,-82.9260,1010.13,1111122 
COMPS,ioos:station:USF.COMPS:C10:1,2014-08-04T08:05:00Z,27.1690,-82.9260,1010.15,1111122 
COMPS,ioos:station:USF.COMPS:C10:1,2014-08-04T08:35:00Z,27.1690,-82.9260,1010.41,1111122 
COMPS,ioos:station:USF.COMPS:C10:1,2014-08-04T09:05:00Z,27.1690,-82.9260,1010.34,1111122 
COMPS,ioos:station:USF.COMPS:C10:1,2014-08-04T09:35:00Z,27.1690,-82.9260,1010.62,1111122 
COMPS,ioos:station:USF.COMPS:C10:1,2014-08-04T11:05:00Z,27.1690,-82.9260,1010.93,1111122 
COMPS,ioos:station:USF.COMPS:C10:1,2014-08-04T11:35:00Z,27.1690,-82.9260,1010.98,1111122 
COMPS,ioos:station:USF.COMPS:C10:1,2014-08-04T13:05:00Z,27.1690,-82.9260,1012.0,1111122 
COMPS,ioos:station:USF.COMPS:C10:1,2014-08-04T13:35:00Z,27.1690,-82.9260,1012.27,1111122 
COMPS,ioos:station:USF.COMPS:C10:1,2014-08-04T14:05:00Z,27.1690,-82.9260,1012.42,1111122 
COMPS,ioos:station:USF.COMPS:C10:1,2014-08-04T14:35:00Z,27.1690,-82.9260,1012.47,1111122 
COMPS,ioos:station:USF.COMPS:C10:1,2014-08-04T15:05:00Z,27.1690,-82.9260,1012.13,1111122 
COMPS,ioos:station:USF.COMPS:C10:1,2014-08-04T15:35:00Z,27.1690,-82.9260,1012.28,1111122 
COMPS,ioos:station:USF.COMPS:C10:1,2014-08-04T16:05:00Z,27.1690,-82.9260,1012.28,1111122 
COMPS,ioos:station:USF.COMPS:C10:1,2014-08-04T16:35:00Z,27.1690,-82.9260,1012.25,1111122 
COMPS,ioos:station:USF.COMPS:C10:1,2014-08-04T18:05:00Z,27.1690,-82.9260,1011.86,1111122 
COMPS,ioos:station:USF.COMPS:C10:1,2014-08-04T18:35:00Z,27.1690,-82.9260,1011.61,1111122 
COMPS,ioos:station:USF.COMPS:C10:1,2014-08-04T19:05:00Z,27.1690,-82.9260,1011.9,1111122 
COMPS,ioos:station:USF.COMPS:C10:1,2014-08-04T19:35:00Z,27.1690,-82.9260,1012.12,1111122 
COMPS,ioos:station:USF.COMPS:C10:1,2014-08-04T20:05:00Z,27.1690,-82.9260,1012.1,1111122 
COMPS,ioos:station:USF.COMPS:C10:1,2014-08-04T20:35:00Z,27.1690,-82.9260,1011.83,1111122 
COMPS,ioos:station:USF.COMPS:C10:1,2014-08-04T21:05:00Z,27.1690,-82.9260,1011.81,1111122 
COMPS,ioos:station:USF.COMPS:C10:1,2014-08-04T21:35:00Z,27.1690,-82.9260,1011.94,1111122 
COMPS,ioos:station:USF.COMPS:C10:1,2014-08-04T23:05:00Z,27.1690,-82.9260,1011.89,1111122 
COMPS,ioos:station:USF.COMPS:C10:1,2014-08-04T23:35:00Z,27.1690,-82.9260,1011.95,1111122 
COMPS,ioos:station:USF.COMPS:C10:1,2014-08-05T00:05:00Z,27.1690,-82.9260,1012.35,1111122 
COMPS,ioos:station:USF.COMPS:C10:1,2014-08-05T00:35:00Z,27.1690,-82.9260,1012.0,1111122 
COMPS,ioos:station:USF.COMPS:C10:1,2014-08-05T01:05:00Z,27.1690,-82.9260,1012.14,1111122 
COMPS,ioos:station:USF.COMPS:C10:1,2014-08-05T01:35:00Z,27.1690,-82.9260,1012.81,1111122 
COMPS,ioos:station:USF.COMPS:C10:1,2014-08-05T02:05:00Z,27.1690,-82.9260,1013.37,1111122 
COMPS,ioos:station:USF.COMPS:C10:1,2014-08-05T02:35:00Z,27.1690,-82.9260,1013.86,1111122 
COMPS,ioos:station:USF.COMPS:C10:1,2014-08-05T03:05:00Z,27.1690,-82.9260,1014.05,1111122 
COMPS,ioos:station:USF.COMPS:C10:1,2014-08-05T03:35:00Z,27.1690,-82.9260,1014.16,1111122 
COMPS,ioos:station:USF.COMPS:C10:1,2014-08-05T04:05:00Z,27.1690,-82.9260,1014.18,1111122 
COMPS,ioos:station:USF.COMPS:C10:1,2014-08-05T04:35:00Z,27.1690,-82.9260,1013.68,1111122 
COMPS,ioos:station:USF.COMPS:C10:1,2014-08-05T05:05:00Z,27.1690,-82.9260,1013.65,1111122 
COMPS,ioos:station:USF.COMPS:C10:1,2014-08-05T05:35:00Z,27.1690,-82.9260,1013.34,1111122 
COMPS,ioos:station:USF.COMPS:C10:1,2014-08-05T06:05:00Z,27.1690,-82.9260,1013.22,1111122 
COMPS,ioos:station:USF.COMPS:C10:1,2014-08-05T06:35:00Z,27.1690,-82.9260,1012.96,1111122 
COMPS,ioos:station:USF.COMPS:C10:1,2014-08-05T08:05:00Z,27.1690,-82.9260,1012.23,1111122 
COMPS,ioos:station:USF.COMPS:C10:1,2014-08-05T08:35:00Z,27.1690,-82.9260,1012.32,1111122 
COMPS,ioos:station:USF.COMPS:C10:1,2014-08-05T09:05:00Z,27.1690,-82.9260,1012.39,1111122 
COMPS,ioos:station:USF.COMPS:C10:1,2014-08-05T09:35:00Z,27.1690,-82.9260,1012.69,1111122 
COMPS,ioos:station:USF.COMPS:C10:1,2014-08-05T10:05:00Z,27.1690,-82.9260,1012.97,1111122 
COMPS,ioos:station:USF.COMPS:C10:1,2014-08-05T10:35:00Z,27.1690,-82.9260,1013.22,1111122 
COMPS,ioos:station:USF.COMPS:C10:1,2014-08-05T12:05:00Z,27.1690,-82.9260,1014.48,1111122 
COMPS,ioos:station:USF.COMPS:C10:1,2014-08-05T12:35:00Z,27.1690,-82.9260,1014.84,1111122 
COMPS,ioos:station:USF.COMPS:C10:1,2014-08-05T13:05:00Z,27.1690,-82.9260,1015.1,1111122 
COMPS,ioos:station:USF.COMPS:C10:1,2014-08-05T13:35:00Z,27.1690,-82.9260,1015.62,1111122 
COMPS,ioos:station:USF.COMPS:C10:1,2014-08-05T14:05:00Z,27.1690,-82.9260,1015.97,1111122 
COMPS,ioos:station:USF.COMPS:C10:1,2014-08-05T14:35:00Z,27.1690,-82.9260,1016.26,1111122 
COMPS,ioos:station:USF.COMPS:C10:1,2014-08-05T15:05:00Z,27.1690,-82.9260,1016.54,1111122 
COMPS,ioos:station:USF.COMPS:C10:1,2014-08-05T15:35:00Z,27.1690,-82.9260,1016.67,1111122 
COMPS,ioos:station:USF.COMPS:C10:1,2014-08-05T16:05:00Z,27.1690,-82.9260,1016.65,1111122 
COMPS,ioos:station:USF.COMPS:C10:1,2014-08-05T16:35:00Z,27.1690,-82.9260,1016.84,1111122 
COMPS,ioos:station:USF.COMPS:C10:1,2014-08-05T17:05:00Z,27.1690,-82.9260,1016.92,1111122 
COMPS,ioos:station:USF.COMPS:C10:1,2014-08-05T17:35:00Z,27.1690,-82.9260,1016.62,1111122 
COMPS,ioos:station:USF.COMPS:C10:1,2014-08-05T18:05:00Z,27.1690,-82.9260,1016.18,1111122 
COMPS,ioos:station:USF.COMPS:C10:1,2014-08-05T18:35:00Z,27.1690,-82.9260,1016.26,1111122 
COMPS,ioos:station:USF.COMPS:C10:1,2014-08-05T20:05:00Z,27.1690,-82.9260,1015.12,1111122 
COMPS,ioos:station:USF.COMPS:C10:1,2014-08-05T20:35:00Z,27.1690,-82.9260,1015.13,1111122 
COMPS,ioos:station:USF.COMPS:C10:1,2014-08-05T21:05:00Z,27.1690,-82.9260,1015.39,1111122 
COMPS,ioos:station:USF.COMPS:C10:1,2014-08-05T21:35:00Z,27.1690,-82.9260,1015.11,1111122 
COMPS,ioos:station:USF.COMPS:C10:1,2014-08-05T22:05:00Z,27.1690,-82.9260,1015.08,1111122 
COMPS,ioos:station:USF.COMPS:C10:1,2014-08-05T22:35:00Z,27.1690,-82.9260,1015.2,1111122 
COMPS,ioos:station:USF.COMPS:C10:1,2014-08-05T23:05:00Z,27.1690,-82.9260,1015.38,1111122 
COMPS,ioos:station:USF.COMPS:C10:1,2014-08-05T23:35:00Z,27.1690,-82.9260,1015.43,1111122 
COMPS,ioos:station:USF.COMPS:C10:1,2014-08-06T00:05:00Z,27.1690,-82.9260,1015.4,1111122 
COMPS,ioos:station:USF.COMPS:C10:1,2014-08-06T00:35:00Z,27.1690,-82.9260,1015.4,1111122 
COMPS,ioos:station:USF.COMPS:C10:1,2014-08-06T01:05:00Z,27.1690,-82.9260,1015.54,1111122 
COMPS,ioos:station:USF.COMPS:C10:1,2014-08-06T01:35:00Z,27.1690,-82.9260,1015.63,1111122 
COMPS,ioos:station:USF.COMPS:C10:1,2014-08-06T02:05:00Z,27.1690,-82.9260,1015.67,1111122 
COMPS,ioos:station:USF.COMPS:C10:1,2014-08-06T02:35:00Z,27.1690,-82.9260,1015.98,1111122 
COMPS,ioos:station:USF.COMPS:C10:1,2014-08-06T03:05:00Z,27.1690,-82.9260,1016.23,1111122 
COMPS,ioos:station:USF.COMPS:C10:1,2014-08-06T03:35:00Z,27.1690,-82.9260,1016.14,1111122 
COMPS,ioos:station:USF.COMPS:C10:1,2014-08-06T04:05:00Z,27.1690,-82.9260,1015.94,1111122 
COMPS,ioos:station:USF.COMPS:C10:1,2014-08-06T04:35:00Z,27.1690,-82.9260,1015.94,1111122 
COMPS,ioos:station:USF.COMPS:C10:1,2014-08-06T05:05:00Z,27.1690,-82.9260,1015.69,1111122 
COMPS,ioos:station:USF.COMPS:C10:1,2014-08-06T05:35:00Z,27.1690,-82.9260,1015.53,1111122 
COMPS,ioos:station:USF.COMPS:C10:1,2014-08-06T06:05:00Z,27.1690,-82.9260,1015.26,1111122 
COMPS,ioos:station:USF.COMPS:C10:1,2014-08-06T06:35:00Z,27.1690,-82.9260,1015.01,1111122 
COMPS,ioos:station:USF.COMPS:C10:1,2014-08-06T07:05:00Z,27.1690,-82.9260,1014.71,1111122 
COMPS,ioos:station:USF.COMPS:C10:1,2014-08-06T07:35:00Z,27.1690,-82.9260,1014.83,1111122 
COMPS,ioos:station:USF.COMPS:C10:1,2014-08-06T08:05:00Z,27.1690,-82.9260,1014.65,1111122 
COMPS,ioos:station:USF.COMPS:C10:1,2014-08-06T08:35:00Z,27.1690,-82.9260,1014.97,1111122 
COMPS,ioos:station:USF.COMPS:C10:1,2014-08-06T09:05:00Z,27.1690,-82.9260,1015.01,1111122 
COMPS,ioos:station:USF.COMPS:C10:1,2014-08-06T09:35:00Z,27.1690,-82.9260,1015.12,1111122 
COMPS,ioos:station:USF.COMPS:C10:1,2014-08-06T10:05:00Z,27.1690,-82.9260,1015.23,1111122 
COMPS,ioos:station:USF.COMPS:C10:1,2014-08-06T10:35:00Z,27.1690,-82.9260,1015.4,1111122 
COMPS,ioos:station:USF.COMPS:C10:1,2014-08-06T11:05:00Z,27.1690,-82.9260,1015.53,1111122 
COMPS,ioos:station:USF.COMPS:C10:1,2014-08-06T11:35:00Z,27.1690,-82.9260,1015.94,1111122 
COMPS,ioos:station:USF.COMPS:C10:1,2014-08-06T12:05:00Z,27.1690,-82.9260,1016.06,1111122 
COMPS,ioos:station:USF.COMPS:C10:1,2014-08-06T12:35:00Z,27.1690,-82.9260,1016.44,1111122 
COMPS,ioos:station:USF.COMPS:C10:1,2014-08-06T13:05:00Z,27.1690,-82.9260,1016.5,1111122 
COMPS,ioos:station:USF.COMPS:C10:1,2014-08-06T13:35:00Z,27.1690,-82.9260,1016.75,1111122 
COMPS,ioos:station:USF.COMPS:C10:1,2014-08-06T14:05:00Z,27.1690,-82.9260,1016.71,1111122 
COMPS,ioos:station:USF.COMPS:C10:1,2014-08-06T14:35:00Z,27.1690,-82.9260,1016.54,1111122 
COMPS,ioos:station:USF.COMPS:C10:1,2014-08-06T15:05:00Z,27.1690,-82.9260,1016.61,1111122 
COMPS,ioos:station:USF.COMPS:C10:1,2014-08-06T15:35:00Z,27.1690,-82.9260,1016.75,1111122 
COMPS,ioos:station:USF.COMPS:C10:1,2014-08-06T16:05:00Z,27.1690,-82.9260,1016.74,1111122 
COMPS,ioos:station:USF.COMPS:C10:1,2014-08-06T16:35:00Z,27.1690,-82.9260,1016.52,1111122 
COMPS,ioos:station:USF.COMPS:C10:1,2014-08-06T17:05:00Z,27.1690,-82.9260,1016.35,1111122 
COMPS,ioos:station:USF.COMPS:C10:1,2014-08-06T17:35:00Z,27.1690,-82.9260,1016.23,1111122 
COMPS,ioos:station:USF.COMPS:C10:1,2014-08-06T18:05:00Z,27.1690,-82.9260,1016.0,1111122 
COMPS,ioos:station:USF.COMPS:C10:1,2014-08-06T18:35:00Z,27.1690,-82.9260,1015.69,1111122 
COMPS,ioos:station:USF.COMPS:C10:1,2014-08-06T19:05:00Z,27.1690,-82.9260,1015.48,1111122 
COMPS,ioos:station:USF.COMPS:C10:1,2014-08-06T19:35:00Z,27.1690,-82.9260,1015.26,1111122 
COMPS,ioos:station:USF.COMPS:C10:1,2014-08-06T20:05:00Z,27.1690,-82.9260,1014.79,1111122 
COMPS,ioos:station:USF.COMPS:C10:1,2014-08-06T20:35:00Z,27.1690,-82.9260,1014.76,1111122 
COMPS,ioos:station:USF.COMPS:C10:1,2014-08-06T21:05:00Z,27.1690,-82.9260,1014.56,1111122 
COMPS,ioos:station:USF.COMPS:C10:1,2014-08-06T21:35:00Z,27.1690,-82.9260,1014.36,1111122 
COMPS,ioos:station:USF.COMPS:C10:1,2014-08-06T22:05:00Z,27.1690,-82.9260,1014.29,1111122 
COMPS,ioos:station:USF.COMPS:C10:1,2014-08-06T22:35:00Z,27.1690,-82.9260,1014.18,1111122 
COMPS,ioos:station:USF.COMPS:C10:1,2014-08-06T23:05:00Z,27.1690,-82.9260,1014.15,1111122 
COMPS,ioos:station:USF.COMPS:C10:1,2014-08-06T23:35:00Z,27.1690,-82.9260,1014.18,1111122 
COMPS,ioos:station:USF.COMPS:C10:1,2014-08-07T00:05:00Z,27.1690,-82.9260,1013.97,1111122 
COMPS,ioos:station:USF.COMPS:C10:1,2014-08-07T00:35:00Z,27.1690,-82.9260,1014.29,1111122 
COMPS,ioos:station:USF.COMPS:C10:1,2014-08-07T01:05:00Z,27.1690,-82.9260,1014.59,1111122 
COMPS,ioos:station:USF.COMPS:C10:1,2014-08-07T01:35:00Z,27.1690,-82.9260,1014.71,1111122 